Flag for Jordan Weather past 2 weeks in Madaba, Jordan

Now
61 °F

Clear.


Feels Like: 61 °F
Forecast: 63 / 83 °F
Wind: No wind

Location: Queen Alia Airport

Current Time: Sep 24, 2014 at 4:21:47 AM

Latest Report: Sep 24, 2014 at 3:00 AM


Visibility: 4 mi

Pressure: 30.04 "Hg

Humidity: 83%

Dew point: 55 °F

Location of MadabaLocation

Historic Weather in Madaba — Graph

°F

Madaba temperature yesterday

Maximum temperature yesterday: 84 °F (at 2:00 PM)
Minimum temperature yesterday: 54 °F (at 6:00 AM)
Average temperature yesterday: 70 °F

Past Weeks' High & Low Weather Summary

 TemperatureHumidityPressure
High91 °F (Sep 17, 3:00 PM)94% (Sep 15, 6:00 AM)30.09 "Hg (Sep 15, 6:00 AM)
Low54 °F (Sep 22, 4:00 AM)20% (Sep 17, 4:00 PM)29.86 "Hg (Sep 17, 6:00 PM)
Average72 °F57%29.98 "Hg
* Reported Sep 9 3:00 AM — Sep 24 3:00 AM, Madaba, Weather by CustomWeather, © 2014

Note: Actual official high and low records may vary slightly from our data, if they occured in-between our weather recording intervals... More about our weather records

Advertising

Madaba weather history for previous 24 hours

 ConditionsComfort  
Time TempWeatherWind HumidityBarometerVisibility
3:00 AM
Sep 24
61 °FClear.No wind83%30.04 "Hg4 mi
1:00 AM64 °FClear.7 mph78%30.07 "Hg4 mi
12:00 AM70 °FClear.7 mph73%30.07 "Hg4 mi
11:00 PM
Sep 23
72 °FClear.7 mph69%30.04 "Hg4 mi
10:00 PM73 °FClear.7 mph61%30.04 "Hg4 mi
9:00 PM73 °FClear.9 mph61%30.04 "Hg4 mi
8:00 PM75 °FClear.9 mph54%30.04 "Hg4 mi
7:00 PM77 °FClear.9 mph47%30.01 "Hg4 mi
6:00 PM81 °FClear.9 mph37%30.01 "Hg4 mi
5:00 PM82 °FClear.12 mph32%30.01 "Hg4 mi
4:00 PM84 °FClear.12 mph29%30.01 "Hg4 mi
3:00 PM84 °FClear.12 mph29%30.01 "Hg4 mi
2:00 PM84 °FClear.12 mph31%30.01 "Hg4 mi
1:00 PM82 °FClear.9 mph32%30.01 "Hg4 mi
12:00 PM81 °FClear.No wind39%30.04 "Hg4 mi
11:00 AM75 °FClear.6 mph50%30.04 "Hg4 mi
10:00 AM72 °FClear.No wind65%30.04 "Hg4 mi
9:00 AM64 °FClear.6 mph73%30.01 "Hg4 mi
8:00 AM57 °FHaze.No wind82%30.01 "Hg3 mi
7:00 AM54 °FFog.No wind88%29.98 "Hg2 mi
6:00 AM54 °FClear.7 mph82%29.98 "Hg5 mi
5:00 AM57 °FClear.5 mph82%29.95 "Hg10 mi
4:00 AM59 °FClear.No wind82%29.95 "Hg10 mi
Weather by CustomWeather, © 2014

See weather overviewHow to use our weather pages